EW2804 Weather Reports


time (UTC)temp
F
wind
direction
speed
knots
gust
knots
rain 1hr
in
rain 24hr
in
rain mn
in
humidity
%
barometer
mb
20260905081332 80 128 0.0 0.0 0.00 0.00 0.00 72 1011.0
20260905080333 80 128 0.0 0.0 0.00 0.00 0.00 71 1010.9
20260905074151 80 128 0.0 0.0 0.00 0.00 0.00 71 1010.9
20260905073157 81 128 0.0 0.0 0.00 0.00 0.00 71 1011.0
20260905072208 81 128 0.0 0.0 0.00 0.00 0.00 68 1011.1
20260905071230 81 128 0.0 0.0 0.00 0.00 0.00 68 1011.2
20260905070211 82 128 0.0 0.0 0.00 0.00 0.00 67 1011.2
20260905065228 82 128 0.0 0.0 0.00 0.00 0.00 66 1011.2
20260905064235 83 128 0.0 0.0 0.00 0.00 0.00 65 1011.2
20260905063218 84 128 0.0 0.0 0.00 0.00 0.00 64 1011.2
20260905062216 85 128 0.0 0.0 0.00 0.00 0.00 63 1011.3
20260905061153 85 128 0.0 0.0 0.00 0.00 0.00 61 1011.3
20260905060150 86 128 0.0 0.0 0.00 0.00 0.00 60 1011.2
20260905055210 86 128 0.0 0.9 0.00 0.00 0.00 59 1011.1
20260905054139 86 128 0.0 2.6 0.00 0.00 0.00 59 1011.0
20260905053106 87 128 0.0 1.7 0.00 0.00 0.00 58 1011.0
20260905052112 87 174 0.0 0.9 0.00 0.00 0.00 58 1010.9
20260905051127 87 141 0.0 1.7 0.00 0.00 0.00 57 1010.8
20260905050146 88 134 0.0 6.1 0.00 0.00 0.00 56 1010.7
20260905045112 88 138 0.0 6.1 0.00 0.00 0.00 56 1010.8
20260905044057 89 159 0.0 2.6 0.00 0.00 0.00 55 1010.7
20260905043048 89 175 0.0 0.0 0.00 0.00 0.00 54 1010.8
20260905042025 89 169 0.9 3.5 0.00 0.00 0.00 52 1010.7
20260905041043 89 123 0.9 5.2 0.00 0.00 0.00 51 1010.8
20260905040028 89 130 0.0 5.2 0.00 0.00 0.00 50 1010.9
20260905035020 89 126 0.0 2.6 0.00 0.00 0.00 49 1010.8
20260905034024 89 140 0.0 3.5 0.00 0.00 0.00 49 1010.8
20260905031800 90 156 0.0 2.6 0.00 0.00 0.00 49 1010.6
20260905030810 90 157 0.0 1.7 0.00 0.00 0.00 49 1010.5
20260905025813 90 156 0.0 0.0 0.00 0.00 0.00 48 1010.5
20260905024822 91 157 0.0 1.7 0.00 0.00 0.00 48 1010.4
20260905023839 91 150 0.0 2.6 0.00 0.00 0.00 48 1010.2
20260905022802 91 175 0.0 2.6 0.00 0.00 0.00 47 1010.1
20260905021811 92 158 0.0 4.3 0.00 0.00 0.00 47 1010.0
20260905020736 92 143 0.0 4.3 0.00 0.00 0.00 47 1009.8
20260905014627 92 175 0.0 4.3 0.00 0.00 0.00 47 1009.5
20260905012456 93 235 0.9 3.5 0.00 0.00 0.00 46 1009.2
20260905011434 93 147 0.9 4.3 0.00 0.00 0.00 46 1009.1
20260905010429 94 145 0.9 4.3 0.00 0.00 0.00 46 1009.1
20260905004305 95 127 0.9 4.3 0.00 0.00 0.00 43 1008.8
20260905003326 96 109 0.9 4.3 0.00 0.00 0.00 42 1008.7
20260905002325 96 112 0.9 5.2 0.00 0.00 0.00 41 1008.6
20260905001342 97 158 0.0 5.2 0.00 0.00 0.00 40 1008.5
20260904235123 98 232 0.9 4.3 0.00 0.00 0.00 39 1008.4
20260904234131 98 186 0.9 5.2 0.00 0.00 0.00 37 1008.5
20260904232020 99 152 0.9 7.0 0.00 0.00 0.00 37 1008.5
20260904231023 99 134 0.9 7.0 0.00 0.00 0.00 38 1008.5
20260904230002 98 115 0.9 4.3 0.00 0.00 0.00 37 1008.5
20260904224935 98 134 0.9 7.0 0.00 0.00 0.00 38 1008.6
20260904223924 98 156 1.7 7.0 0.00 0.00 0.00 38 1008.7
20260904222849 97 155 0.9 5.2 0.00 0.00 0.00 40 1008.7
20260904221907 97 134 0.9 3.5 0.00 0.00 0.00 40 1008.8
20260904220923 98 116 2.6 8.7 0.00 0.00 0.00 40 1008.8
20260904215918 98 112 1.7 8.7 0.00 0.00 0.00 40 1008.9
20260904214854 98 214 2.6 7.8 0.00 0.00 0.00 39 1009.0
20260904213847 99 175 2.6 7.8 0.00 0.00 0.00 38 1009.0
20260904211756 100 110 1.7 9.6 0.00 0.00 0.00 38 1009.3
20260904210744 100 204 1.7 9.6 0.00 0.00 0.00 38 1009.3
20260904205709 100 152 1.7 7.0 0.00 0.00 0.00 38 1009.5
20260904204642 99 257 2.6 7.0 0.00 0.00 0.00 39 1009.6
20260904203643 99 171 1.7 7.0 0.00 0.00 0.00 40 1009.7
20260904200358 98 242 1.7 9.6 0.00 0.00 0.00 42 1010.1
20260904195352 98 176 2.6 9.6 0.00 0.00 0.00 43 1010.2
20260904194356 98 216 1.7 7.8 0.00 0.00 0.00 43 1010.3
20260904193352 98 128 1.7 6.1 0.00 0.00 0.00 44 1010.5
20260904192341 97 229 1.7 7.0 0.00 0.00 0.00 45 1010.6
20260904191340 97 259 2.6 7.0 0.00 0.00 0.00 46 1010.7
20260904190402 97 238 2.6 7.8 0.00 0.00 0.00 45 1010.9
20260904185400 96 163 1.7 7.8 0.00 0.00 0.00 46 1011.0
20260904184345 96 184 2.6 7.0 0.00 0.00 0.00 47 1011.2
20260904182217 95 107 2.6 7.8 0.00 0.00 0.00 47 1011.5
20260904181223 95 92 1.7 7.8 0.00 0.00 0.00 48 1011.5
20260904180153 95 100 1.7 7.8 0.00 0.00 0.00 48 1011.7
20260904175119 94 238 1.7 7.0 0.00 0.00 0.00 49 1011.8
20260904174127 93 161 1.7 6.1 0.00 0.00 0.00 48 1011.9
20260904172026 94 240 1.7 5.2 0.00 0.00 0.00 47 1012.2
20260904171047 93 243 1.7 7.8 0.00 0.00 0.00 49 1012.3
20260904164943 92 173 2.6 7.8 0.00 0.00 0.00 52 1012.5
20260904163920 91 290 2.6 7.0 0.00 0.00 0.00 56 1012.5
20260904161747 90 186 1.7 7.0 0.00 0.00 0.00 56 1012.7
20260904160735 89 140 0.9 7.0 0.00 0.00 0.00 62 1012.7
20260904155754 88 202 1.7 7.0 0.00 0.00 0.00 62 1012.6
20260904154751 87 211 1.7 6.1 0.00 0.00 0.00 64 1012.6
20260904153742 86 223 0.9 6.1 0.00 0.00 0.00 67 1012.6
20260904152804 85 86 0.9 4.3 0.00 0.00 0.00 70 1012.6
20260904151807 84 115 0.9 5.2 0.00 0.00 0.00 73 1012.6
20260904145620 84 161 1.7 6.1 0.00 0.00 0.00 73 1012.6
20260904143458 83 141 0.9 7.0 0.00 0.00 0.00 75 1012.4
20260904142456 82 245 0.9 5.2 0.00 0.00 0.00 77 1012.4
20260904141428 81 132 0.0 2.6 0.00 0.00 0.00 78 1012.4
20260904140440 81 182 0.0 5.2 0.00 0.00 0.00 79 1012.3
20260904135401 81 173 0.9 5.2 0.00 0.00 0.00 79 1012.4
20260904134342 81 184 0.0 7.0 0.00 0.00 0.00 79 1012.3
20260904133316 80 160 0.9 7.0 0.00 0.00 0.00 79 1012.2
20260904131212 80 111 0.0 1.7 0.00 0.00 0.00 80 1012.0
20260904130139 80 94 0.0 0.0 0.00 0.00 0.00 80 1011.8
20260904125150 79 116 0.0 4.3 0.00 0.00 0.00 81 1011.7
20260904124135 79 134 0.0 2.6 0.00 0.00 0.00 81 1011.6
20260904123154 79 138 0.0 0.0 0.00 0.00 0.00 81 1011.6
20260904122129 79 138 0.0 0.9 0.00 0.00 0.00 81 1011.4
20260904114907 79 139 0.0 0.0 0.00 0.00 0.00 80 1011.3
20260904113836 79 138 0.0 1.7 0.00 0.00 0.00 80 1011.2
20260904112806 79 138 0.0 1.7 0.00 0.00 0.00 80 1011.2
20260904111818 79 139 0.0 0.0 0.00 0.00 0.00 80 1011.2
20260904110816 79 139 0.0 0.0 0.00 0.00 0.00 80 1011.2
20260904105825 79 139 0.0 0.0 0.00 0.00 0.00 80 1011.2
20260904103718 79 139 0.0 0.0 0.00 0.00 0.00 79 1011.1
20260904102722 79 119 0.0 0.0 0.00 0.00 0.00 79 1011.0
20260904101709 79 119 0.0 1.7 0.00 0.00 0.00 79 1011.0
20260904100652 79 132 0.0 0.9 0.00 0.00 0.00 79 1010.9
20260904094444 80 132 0.0 0.9 0.00 0.00 0.00 78 1010.8
20260904093439 80 132 0.0 0.0 0.00 0.00 0.00 78 1010.9
20260904092457 80 142 0.0 0.0 0.00 0.00 0.00 77 1010.9
20260904090307 80 117 0.0 1.7 0.00 0.00 0.00 77 1010.7
20260904085301 80 129 0.0 4.3 0.00 0.00 0.00 77 1010.7
20260904084303 80 139 0.0 1.7 0.00 0.00 0.00 76 1010.7
20260904083251 80 139 0.0 0.0 0.00 0.00 0.00 76 1010.6
20260904082218 80 149 0.0 0.0 0.00 0.00 0.00 76 1010.6